Location: Bogis-Bossey
(46.3500°N, 6.1667°E)
Time: 18:20:36
(UTC+00:00)

Cosmos 1943 Rocket - Pass Details

Date: 17 August 2022
Orbit: 813 x 842 km, 71.0° (Epoch: 30 September)

Event Time Altitude Azimuth Distance (km) Brightness Sun altitude
Exits shadow 22:07:50 30° 71° (ENE) 1,467 3.3 -27.0°
Drops below altitude 10° 22:11:14 10° 41° (NE) 2,450 4.9 -27.2°
Sets 22:13:49 0° 34° (NNE) 3,384 5.8 -27.4°
